Satellite: HRBE Catalog number: 37855 Epoch time: 14338.26640873 Element set: 997 Inclination: 101.7087 deg RA of node: 090.8497 deg Eccentricity: 0.0207839 Arg of perigee: 281.8916 deg Mean anomaly: 075.9053 deg Mean motion: 14.92834042 rev/day Decay rate: 1.3583e-04 rev/day^2 Epoch rev: 16802 Checksum: 343
Satellite: RS-39 Catalog number: 38051 Epoch time: 14288.65876392 Element set: 41 Inclination: 051.5964 deg RA of node: 324.1908 deg Eccentricity: 0.0006422 Arg of perigee: 269.6897 deg Mean anomaly: 186.8903 deg Mean motion: 16.43533377 rev/day Decay rate: 7.0201582e-01 rev/day^2 Epoch rev: 15308 Checksum: 345
Satellite: E-STAR Catalog number: 38079 Epoch time: 14338.88664367 Element set: 88 Inclination: 069.4310 deg RA of node: 249.3348 deg Eccentricity: 0.0186412 Arg of perigee: 102.6535 deg Mean anomaly: 259.5505 deg Mean motion: 15.60088059 rev/day Decay rate: 3.19492e-03 rev/day^2 Epoch rev: 14951 Checksum: 338
Satellite: GOLIAT Catalog number: 38085 Epoch time: 14338.86645374 Element set: 598 Inclination: 069.4365 deg RA of node: 262.0055 deg Eccentricity: 0.0231675 Arg of perigee: 108.3494 deg Mean anomaly: 355.5086 deg Mean motion: 15.46504479 rev/day Decay rate: 2.25693e-03 rev/day^2 Epoch rev: 14918 Checksum: 347
Satellite: HORYU-2 Catalog number: 38340 Epoch time: 14338.40864725 Element set: 36 Inclination: 098.2873 deg RA of node: 298.7605 deg Eccentricity: 0.0012302 Arg of perigee: 003.2164 deg Mean anomaly: 356.9120 deg Mean motion: 14.73304880 rev/day Decay rate: 3.693e-05 rev/day^2 Epoch rev: 13684 Checksum: 298
Satellite: RS-40 Catalog number: 38735 Epoch time: 14338.82231633 Element set: 829 Inclination: 082.4743 deg RA of node: 181.1565 deg Eccentricity: 0.0016518 Arg of perigee: 243.8267 deg Mean anomaly: 116.1117 deg Mean motion: 12.42564597 rev/day Decay rate: 4.0e-07 rev/day^2 Epoch rev: 10677 Checksum: 303
Satellite: PROITERES Catalog number: 38756 Epoch time: 14338.78990620 Element set: 467 Inclination: 098.2234 deg RA of node: 069.8730 deg Eccentricity: 0.0012121 Arg of perigee: 194.2616 deg Mean anomaly: 165.8251 deg Mean motion: 14.75345854 rev/day Decay rate: 2.030e-05 rev/day^2 Epoch rev: 12033 Checksum: 299
Satellite: BEESAT-3 Catalog number: 39134 Epoch time: 14337.35199170 Element set: 782 Inclination: 064.8745 deg RA of node: 322.2658 deg Eccentricity: 0.0036033 Arg of perigee: 280.5900 deg Mean anomaly: 079.1163 deg Mean motion: 15.08072734 rev/day Decay rate: 1.6811e-04 rev/day^2 Epoch rev: 8912 Checksum: 303
Satellite: BEESAT-2 Catalog number: 39136 Epoch time: 14337.36701748 Element set: 762 Inclination: 064.8750 deg RA of node: 323.3197 deg Eccentricity: 0.0036343 Arg of perigee: 280.5216 deg Mean anomaly: 079.1811 deg Mean motion: 15.07081431 rev/day Decay rate: 1.4519e-04 rev/day^2 Epoch rev: 8911 Checksum: 298
Satellite: LO-75 Catalog number: 39382 Epoch time: 14295.69194059 Element set: 487 Inclination: 040.4713 deg RA of node: 030.2705 deg Eccentricity: 0.0002289 Arg of perigee: 341.7175 deg Mean anomaly: 018.4586 deg Mean motion: 16.19795749 rev/day Decay rate: 7.301741e-02 rev/day^2 Epoch rev: 47082 Checksum: 345
Satellite: ZACUBE-1 Catalog number: 39417 Epoch time: 14337.85309216 Element set: 480 Inclination: 097.7582 deg RA of node: 042.5359 deg Eccentricity: 0.0062470 Arg of perigee: 053.3164 deg Mean anomaly: 307.3766 deg Mean motion: 14.78820547 rev/day Decay rate: 3.361e-05 rev/day^2 Epoch rev: 5576 Checksum: 319
Satellite: TRITON-1 Catalog number: 39427 Epoch time: 14337.43413515 Element set: 331 Inclination: 097.7450 deg RA of node: 034.4840 deg Eccentricity: 0.0118370 Arg of perigee: 072.0109 deg Mean anomaly: 289.3955 deg Mean motion: 14.65956026 rev/day Decay rate: 2.276e-05 rev/day^2 Epoch rev: 5518 Checksum: 301
Satellite: DELFIN3XT Catalog number: 39428 Epoch time: 14338.06200925 Element set: 335 Inclination: 097.7445 deg RA of node: 033.8081 deg Eccentricity: 0.0127910 Arg of perigee: 073.4290 deg Mean anomaly: 288.0917 deg Mean motion: 14.64228989 rev/day Decay rate: 4.184e-05 rev/day^2 Epoch rev: 5518 Checksum: 319
Satellite: GOMX-1 Catalog number: 39430 Epoch time: 14338.82354872 Element set: 43 Inclination: 097.7391 deg RA of node: 030.7556 deg Eccentricity: 0.0156539 Arg of perigee: 081.6503 deg Mean anomaly: 280.2395 deg Mean motion: 14.57387978 rev/day Decay rate: 2.572e-05 rev/day^2 Epoch rev: 5506 Checksum: 328
Satellite: MO-76 Catalog number: 39436 Epoch time: 14337.68145002 Element set: 424 Inclination: 097.7653 deg RA of node: 049.0720 deg Eccentricity: 0.0023699 Arg of perigee: 048.3140 deg Mean anomaly: 312.0104 deg Mean motion: 14.96087985 rev/day Decay rate: 2.9279e-04 rev/day^2 Epoch rev: 5615 Checksum: 322
Satellite: LO-74 Catalog number: 39440 Epoch time: 14337.44678328 Element set: 328 Inclination: 097.7538 deg RA of node: 039.1142 deg Eccentricity: 0.0084405 Arg of perigee: 060.5180 deg Mean anomaly: 300.4415 deg Mean motion: 14.73710065 rev/day Decay rate: 2.913e-05 rev/day^2 Epoch rev: 5550 Checksum: 294
Satellite: PUCPSAT-1 Catalog number: 39442 Epoch time: 14338.26960268 Element set: 328 Inclination: 097.7646 deg RA of node: 047.7020 deg Eccentricity: 0.0034895 Arg of perigee: 047.9814 deg Mean anomaly: 312.4363 deg Mean motion: 14.87180316 rev/day Decay rate: 5.596e-05 rev/day^2 Epoch rev: 5488 Checksum: 335
Satellite: SHINAISAT Catalog number: 39572 Epoch time: 14328.13084988 Element set: 447 Inclination: 064.9728 deg RA of node: 197.0096 deg Eccentricity: 0.0013534 Arg of perigee: 259.7861 deg Mean anomaly: 100.1802 deg Mean motion: 16.45181032 rev/day Decay rate: 2.8848087e-01 rev/day^2 Epoch rev: 4240 Checksum: 324
Satellite: TEIKYOSAT Catalog number: 39576 Epoch time: 14297.85867254 Element set: 437 Inclination: 064.9818 deg RA of node: 300.5833 deg Eccentricity: 0.0008491 Arg of perigee: 317.3597 deg Mean anomaly: 044.3862 deg Mean motion: 16.45008906 rev/day Decay rate: 9.345816e-02 rev/day^2 Epoch rev: 3769 Checksum: 359
Satellite: CO-77 Catalog number: 39577 Epoch time: 14244.78324653 Element set: 379 Inclination: 064.9920 deg RA of node: 123.7668 deg Eccentricity: 0.0014904 Arg of perigee: 269.7208 deg Mean anomaly: 091.1897 deg Mean motion: 16.43552757 rev/day Decay rate: 1.0543803e-01 rev/day^2 Epoch rev: 2938 Checksum: 363
Satellite: SPROUT Catalog number: 39770 Epoch time: 14338.11991706 Element set: 211 Inclination: 097.8733 deg RA of node: 072.7198 deg Eccentricity: 0.0011260 Arg of perigee: 117.3431 deg Mean anomaly: 242.8907 deg Mean motion: 14.83133737 rev/day Decay rate: 3.161e-05 rev/day^2 Epoch rev: 2871 Checksum: 293
Satellite: POPSAT-HIP1 Catalog number: 40028 Epoch time: 14338.72108346 Element set: 516 Inclination: 097.9700 deg RA of node: 233.6682 deg Eccentricity: 0.0015899 Arg of perigee: 095.9949 deg Mean anomaly: 264.3082 deg Mean motion: 14.85876582 rev/day Decay rate: 4.556e-05 rev/day^2 Epoch rev: 2489 Checksum: 347
Satellite: EO-80 Catalog number: 40032 Epoch time: 14338.68016826 Element set: 500 Inclination: 097.9667 deg RA of node: 233.4852 deg Eccentricity: 0.0013727 Arg of perigee: 091.5005 deg Mean anomaly: 268.7802 deg Mean motion: 14.85623259 rev/day Decay rate: 4.344e-05 rev/day^2 Epoch rev: 2489 Checksum: 314
Satellite: VELOX-1 Catalog number: 40057 Epoch time: 14338.75649490 Element set: 505 Inclination: 098.2373 deg RA of node: 048.6367 deg Eccentricity: 0.0012365 Arg of perigee: 137.1250 deg Mean anomaly: 223.0920 deg Mean motion: 14.74730815 rev/day Decay rate: 4.556e-05 rev/day^2 Epoch rev: 2321 Checksum: 287
Satellite: DAURIA DX 1 Catalog number: 40071 Epoch time: 14338.77446716 Element set: 477 Inclination: 098.3838 deg RA of node: 037.0046 deg Eccentricity: 0.0009419 Arg of perigee: 138.0245 deg Mean anomaly: 222.1686 deg Mean motion: 14.79865065 rev/day Decay rate: 2.127e-05 rev/day^2 Epoch rev: 2203 Checksum: 302
Satellite: UKUBE-1 Catalog number: 40074 Epoch time: 14338.74258611 Element set: 478 Inclination: 098.3848 deg RA of node: 037.2271 deg Eccentricity: 0.0005574 Arg of perigee: 143.8304 deg Mean anomaly: 216.3291 deg Mean motion: 14.81097360 rev/day Decay rate: 4.481e-05 rev/day^2 Epoch rev: 2204 Checksum: 291
Satellite: CHASQUI-1 Catalog number: 40117 Epoch time: 14338.86633039 Element set: 330 Inclination: 051.6409 deg RA of node: 327.0276 deg Eccentricity: 0.0010634 Arg of perigee: 058.4134 deg Mean anomaly: 013.9156 deg Mean motion: 15.73046689 rev/day Decay rate: 2.43280e-03 rev/day^2 Epoch rev: 1686 Checksum: 289
Satellite: HODOYOSHI-1 Catalog number: 40299 Epoch time: 14338.87408449 Element set: 92 Inclination: 097.4743 deg RA of node: 057.9309 deg Eccentricity: 0.0014974 Arg of perigee: 090.1536 deg Mean anomaly: 013.1172 deg Mean motion: 15.17305662 rev/day Decay rate: 8.597e-05 rev/day^2 Epoch rev: 432 Checksum: 313
Satellite: CHUBUSAT-1 Catalog number: 40300 Epoch time: 14338.84896854 Element set: 93 Inclination: 097.4720 deg RA of node: 057.8062 deg Eccentricity: 0.0024663 Arg of perigee: 089.6175 deg Mean anomaly: 017.5801 deg Mean motion: 15.15193657 rev/day Decay rate: 9.291e-05 rev/day^2 Epoch rev: 431 Checksum: 308
Satellite: QSAT-EOS Catalog number: 40301 Epoch time: 14338.76343354 Element set: 99 Inclination: 097.4688 deg RA of node: 057.6015 deg Eccentricity: 0.0036073 Arg of perigee: 088.7235 deg Mean anomaly: 009.7114 deg Mean motion: 15.12728624 rev/day Decay rate: 1.6302e-04 rev/day^2 Epoch rev: 430 Checksum: 285
Satellite: TSUBAME Catalog number: 40302 Epoch time: 14338.85502010 Element set: 92 Inclination: 097.4659 deg RA of node: 057.5825 deg Eccentricity: 0.0046736 Arg of perigee: 089.2209 deg Mean anomaly: 271.4311 deg Mean motion: 15.10381958 rev/day Decay rate: 1.1236e-04 rev/day^2 Epoch rev: 430 Checksum: 275
/EX
participants (1)
-
Ray Hoad